| time (UTC) | temp C | wind direction | speed KPH | gust KPH | rain 1hr cm | rain 24hr cm | rain mn cm | humidity % | barometer mb |
| 20260904204051 | 13 | 27 | 1.6 | 4.8 | 0.00 | 0.00 | 0.00 | 82 | 1019.8 |
| 20260904203108 | 11 | 79 | 0.0 | 3.2 | 0.00 | 0.00 | 0.00 | 84 | 1019.7 |
| 20260904202104 | 11 | 90 | 0.0 | 3.2 | 0.00 | 0.00 | 0.00 | 86 | 1019.6 |
| 20260904201040 | 11 | 90 | 3.2 | 4.8 | 0.00 | 0.00 | 0.00 | 87 | 1019.4 |
| 20260904200037 | 11 | 90 | 1.6 | 3.2 | 0.00 | 0.00 | 0.00 | 87 | 1019.5 |
| 20260904195033 | 10 | 90 | 1.6 | 3.2 | 0.00 | 0.00 | 0.00 | 88 | 1019.4 |
| 20260904194050 | 9 | 128 | 3.2 | 4.8 | 0.00 | 0.00 | 0.00 | 86 | 1019.3 |
| 20260904193026 | 9 | 140 | 3.2 | 6.4 | 0.00 | 0.00 | 0.00 | 86 | 1019.1 |
| 20260904192025 | 9 | 158 | 6.4 | 9.7 | 0.00 | 0.00 | 0.00 | 86 | 1019.1 |
| 20260904191020 | 9 | 147 | 6.4 | 8.0 | 0.00 | 0.00 | 0.00 | 86 | 1019.0 |
| 20260904190016 | 8 | 171 | 6.4 | 9.7 | 0.00 | 0.00 | 0.00 | 86 | 1018.9 |
| 20260904185112 | 8 | 172 | 8.0 | 12.9 | 0.00 | 0.00 | 0.00 | 86 | 1018.8 |
| 20260904184110 | 8 | 153 | 9.7 | 11.3 | 0.00 | 0.00 | 0.00 | 85 | 1018.6 |
| 20260904183126 | 8 | 172 | 8.0 | 12.9 | 0.00 | 0.00 | 0.00 | 85 | 1018.5 |
| 20260904182103 | 8 | 149 | 6.4 | 11.3 | 0.00 | 0.00 | 0.00 | 84 | 1018.6 |
| 20260904181100 | 8 | 146 | 8.0 | 12.9 | 0.00 | 0.00 | 0.00 | 84 | 1018.5 |
| 20260904180055 | 8 | 169 | 8.0 | 11.3 | 0.00 | 0.00 | 0.00 | 84 | 1018.4 |
| 20260904175053 | 8 | 142 | 6.4 | 9.7 | 0.00 | 0.00 | 0.00 | 84 | 1018.4 |
| 20260904174109 | 8 | 154 | 6.4 | 9.7 | 0.00 | 0.00 | 0.00 | 84 | 1018.4 |
| 20260904173104 | 8 | 176 | 8.0 | 12.9 | 0.00 | 0.00 | 0.00 | 84 | 1018.2 |
| 20260904172040 | 8 | 158 | 8.0 | 12.9 | 0.00 | 0.00 | 0.00 | 83 | 1018.0 |
| 20260904171038 | 8 | 157 | 8.0 | 11.3 | 0.00 | 0.00 | 0.00 | 83 | 1017.9 |
| 20260904170033 | 8 | 176 | 8.0 | 12.9 | 0.00 | 0.00 | 0.00 | 84 | 1017.8 |
| 20260904165030 | 8 | 178 | 9.7 | 14.5 | 0.00 | 0.00 | 0.00 | 84 | 1017.6 |
| 20260904164026 | 8 | 166 | 8.0 | 12.9 | 0.00 | 0.00 | 0.00 | 84 | 1017.6 |
| 20260904163023 | 8 | 171 | 8.0 | 12.9 | 0.00 | 0.00 | 0.00 | 84 | 1017.5 |
| 20260904162019 | 8 | 176 | 12.9 | 16.1 | 0.00 | 0.00 | 0.00 | 84 | 1017.2 |
| 20260904161017 | 8 | 175 | 11.3 | 14.5 | 0.00 | 0.00 | 0.00 | 84 | 1017.1 |
| 20260904160113 | 8 | 168 | 9.7 | 12.9 | 0.00 | 0.00 | 0.00 | 84 | 1017.0 |
| 20260904155110 | 9 | 176 | 11.3 | 17.7 | 0.00 | 0.00 | 0.00 | 84 | 1016.9 |
| 20260904154105 | 9 | 176 | 11.3 | 17.7 | 0.00 | 0.00 | 0.00 | 84 | 1016.9 |
| 20260904153103 | 10 | 182 | 11.3 | 17.7 | 0.00 | 0.00 | 0.00 | 84 | 1016.9 |
| 20260904152058 | 10 | 185 | 11.3 | 17.7 | 0.00 | 0.00 | 0.00 | 84 | 1016.7 |
| 20260904151115 | 10 | 176 | 9.7 | 14.5 | 0.00 | 0.00 | 0.00 | 84 | 1016.8 |
| 20260904150054 | 10 | 180 | 9.7 | 16.1 | 0.00 | 0.00 | 0.00 | 84 | 1016.8 |
| 20260904145048 | 10 | 184 | 11.3 | 17.7 | 0.00 | 0.00 | 0.00 | 83 | 1016.8 |
| 20260904144044 | 9 | 180 | 11.3 | 17.7 | 0.00 | 0.00 | 0.00 | 83 | 1016.8 |
| 20260904143041 | 9 | 179 | 11.3 | 16.1 | 0.00 | 0.00 | 0.00 | 82 | 1017.0 |
| 20260904142100 | 9 | 197 | 9.7 | 14.5 | 0.00 | 0.00 | 0.00 | 82 | 1017.1 |
| 20260904141036 | 9 | 180 | 11.3 | 17.7 | 0.00 | 0.00 | 0.00 | 81 | 1017.1 |
| 20260904140031 | 9 | 188 | 9.7 | 12.9 | 0.00 | 0.00 | 0.00 | 81 | 1017.2 |
| 20260904135027 | 9 | 186 | 11.3 | 16.1 | 0.00 | 0.00 | 0.00 | 81 | 1017.2 |
| 20260904134023 | 9 | 180 | 8.0 | 12.9 | 0.00 | 0.00 | 0.00 | 80 | 1017.1 |
| 20260904133020 | 9 | 183 | 9.7 | 16.1 | 0.00 | 0.00 | 0.00 | 80 | 1016.9 |
| 20260904132016 | 9 | 190 | 12.9 | 17.7 | 0.00 | 0.00 | 0.00 | 80 | 1017.0 |
| 20260904131134 | 9 | 184 | 12.9 | 17.7 | 0.00 | 0.00 | 0.00 | 81 | 1016.9 |
| 20260904130130 | 10 | 209 | 14.5 | 17.7 | 0.00 | 0.00 | 0.00 | 82 | 1016.9 |
| 20260904125106 | 10 | 208 | 14.5 | 19.3 | 0.00 | 0.00 | 0.00 | 83 | 1016.8 |
| 20260904124103 | 10 | 197 | 11.3 | 17.7 | 0.00 | 0.00 | 0.00 | 83 | 1016.6 |
| 20260904123059 | 10 | 199 | 14.5 | 24.1 | 0.00 | 0.00 | 0.00 | 83 | 1016.3 |
| 20260904122058 | 10 | 193 | 9.7 | 16.1 | 0.00 | 0.00 | 0.00 | 83 | 1016.2 |
| 20260904121054 | 9 | 201 | 9.7 | 16.1 | 0.00 | 0.00 | 0.00 | 83 | 1016.1 |
| 20260904120049 | 9 | 180 | 9.7 | 17.7 | 0.00 | 0.00 | 0.00 | 83 | 1016.1 |
| 20260904115046 | 9 | 199 | 8.0 | 12.9 | 0.00 | 0.00 | 0.00 | 83 | 1015.7 |
| 20260904114042 | 9 | 194 | 11.3 | 17.7 | 0.00 | 0.00 | 0.00 | 83 | 1015.7 |
| 20260904113039 | 10 | 192 | 14.5 | 19.3 | 0.00 | 0.00 | 0.00 | 84 | 1015.8 |
| 20260904112036 | 10 | 192 | 14.5 | 20.9 | 0.00 | 0.00 | 0.00 | 85 | 1015.7 |
| 20260904111031 | 10 | 217 | 14.5 | 22.5 | 0.00 | 0.00 | 0.00 | 85 | 1015.5 |
| 20260904110029 | 9 | 217 | 11.3 | 22.5 | 0.00 | 0.00 | 0.00 | 84 | 1015.5 |
| 20260904105106 | 10 | 183 | 6.4 | 14.5 | 0.00 | 0.00 | 0.00 | 84 | 1015.5 |
| 20260904104021 | 10 | 184 | 4.8 | 8.0 | 0.00 | 0.00 | 0.00 | 85 | 1015.4 |
| 20260904103019 | 10 | 185 | 8.0 | 16.1 | 0.00 | 0.00 | 0.00 | 85 | 1015.4 |
| 20260904102114 | 10 | 211 | 8.0 | 16.1 | 0.00 | 0.00 | 0.00 | 85 | 1015.2 |
| 20260904101112 | 10 | 223 | 9.7 | 17.7 | 0.00 | 0.00 | 0.00 | 85 | 1015.0 |
| 20260904100109 | 10 | 226 | 4.8 | 11.3 | 0.00 | 0.00 | 0.00 | 85 | 1014.9 |
| 20260904095106 | 10 | 268 | 9.7 | 17.7 | 0.00 | 0.00 | 0.00 | 85 | 1014.9 |
| 20260904094100 | 10 | 244 | 16.1 | 25.7 | 0.00 | 0.00 | 0.00 | 85 | 1014.9 |
| 20260904093100 | 10 | 215 | 11.3 | 20.9 | 0.00 | 0.00 | 0.00 | 85 | 1014.7 |
| 20260904092053 | 10 | 238 | 9.7 | 16.1 | 0.00 | 0.00 | 0.00 | 84 | 1014.5 |
| 20260904091051 | 11 | 261 | 11.3 | 17.7 | 0.00 | 0.00 | 0.00 | 85 | 1014.4 |
| 20260904090046 | 11 | 228 | 17.7 | 27.4 | 0.00 | 0.00 | 0.00 | 85 | 1014.2 |
| 20260904085043 | 11 | 243 | 11.3 | 27.4 | 0.00 | 0.00 | 0.00 | 84 | 1014.0 |
| 20260904084101 | 11 | 241 | 8.0 | 14.5 | 0.00 | 0.00 | 0.00 | 84 | 1013.9 |
| 20260904083057 | 11 | 257 | 4.8 | 9.7 | 0.00 | 0.00 | 0.00 | 83 | 1013.9 |
| 20260904082032 | 11 | 225 | 9.7 | 12.9 | 0.00 | 0.03 | 0.00 | 83 | 1013.8 |
| 20260904081030 | 11 | 227 | 9.7 | 17.7 | 0.00 | 0.03 | 0.00 | 83 | 1013.5 |
| 20260904080028 | 11 | 261 | 8.0 | 14.5 | 0.00 | 0.03 | 0.00 | 83 | 1013.3 |
| 20260904075023 | 11 | 242 | 9.7 | 17.7 | 0.00 | 0.03 | 0.00 | 82 | 1013.1 |
| 20260904074018 | 11 | 263 | 4.8 | 12.9 | 0.00 | 0.03 | 0.00 | 82 | 1013.0 |
| 20260904073116 | 11 | 265 | 4.8 | 12.9 | 0.00 | 0.03 | 0.00 | 82 | 1012.8 |
| 20260904072113 | 11 | 262 | 4.8 | 12.9 | 0.00 | 0.03 | 0.00 | 81 | 1012.7 |
| 20260904071108 | 11 | 266 | 4.8 | 12.9 | 0.00 | 0.03 | 0.00 | 81 | 1013.0 |
| 20260904070105 | 11 | 275 | 6.4 | 12.9 | 0.00 | 0.03 | 0.00 | 80 | 1012.9 |
| 20260904065121 | 11 | 227 | 6.4 | 16.1 | 0.00 | 0.03 | 0.00 | 80 | 1012.7 |
| 20260904064058 | 11 | 260 | 8.0 | 14.5 | 0.00 | 0.03 | 0.00 | 79 | 1012.5 |
| 20260904063056 | 11 | 235 | 9.7 | 14.5 | 0.00 | 0.03 | 0.00 | 79 | 1012.5 |
| 20260904062052 | 11 | 258 | 6.4 | 12.9 | 0.00 | 0.03 | 0.00 | 78 | 1012.3 |
| 20260904061109 | 11 | 259 | 8.0 | 14.5 | 0.00 | 0.03 | 0.00 | 78 | 1012.2 |
| 20260904060045 | 12 | 249 | 9.7 | 14.5 | 0.00 | 0.03 | 0.00 | 77 | 1012.2 |
| 20260904055042 | 12 | 232 | 8.0 | 17.7 | 0.00 | 0.03 | 0.00 | 75 | 1012.4 |
| 20260904054037 | 12 | 230 | 9.7 | 16.1 | 0.00 | 0.03 | 0.00 | 72 | 1012.2 |
| 20260904053033 | 12 | 228 | 8.0 | 14.5 | 0.00 | 0.03 | 0.00 | 71 | 1012.2 |
| 20260904052032 | 13 | 242 | 14.5 | 25.7 | 0.00 | 0.03 | 0.00 | 71 | 1012.1 |
| 20260904051027 | 13 | 243 | 12.9 | 24.1 | 0.00 | 0.03 | 0.00 | 70 | 1011.8 |
| 20260904050022 | 14 | 237 | 17.7 | 24.1 | 0.00 | 0.03 | 0.00 | 70 | 1011.7 |
| 20260904045020 | 15 | 231 | 16.1 | 25.7 | 0.00 | 0.03 | 0.00 | 70 | 1011.5 |
| 20260904044017 | 16 | 235 | 14.5 | 24.1 | 0.00 | 0.03 | 0.00 | 72 | 1011.4 |
| 20260904043112 | 16 | 249 | 17.7 | 24.1 | 0.00 | 0.03 | 0.00 | 78 | 1011.3 |
| 20260904042110 | 15 | 256 | 17.7 | 24.1 | 0.00 | 0.03 | 0.00 | 81 | 1011.1 |
| 20260904041127 | 15 | 245 | 12.9 | 22.5 | 0.00 | 0.03 | 0.00 | 81 | 1011.0 |
| 20260904035058 | 15 | 241 | 19.3 | 32.2 | 0.00 | 0.03 | 0.00 | 85 | 1010.9 |
| 20260904034055 | 16 | 229 | 17.7 | 27.4 | 0.00 | 0.03 | 0.00 | 90 | 1010.9 |
| 20260904033052 | 16 | 253 | 16.1 | 25.7 | 0.00 | 0.03 | 0.00 | 95 | 1010.8 |
| 20260904032048 | 16 | 240 | 16.1 | 24.1 | 0.00 | 0.03 | 0.00 | 99 | 1010.7 |
| 20260904031046 | 16 | 232 | 19.3 | 33.8 | 0.00 | 0.03 | 0.00 | 99 | 1010.7 |
| 20260904030040 | 15 | 265 | 19.3 | 29.0 | 0.00 | 0.03 | 0.00 | 99 | 1010.6 |
| 20260904025057 | 14 | 265 | 17.7 | 27.4 | 0.00 | 0.03 | 0.00 | 99 | 1010.3 |
| 20260904024033 | 15 | 267 | 9.7 | 17.7 | 0.00 | 0.03 | 0.00 | 99 | 1010.1 |
| 20260904023031 | 14 | 309 | 8.0 | 12.9 | 0.00 | 0.03 | 0.00 | 99 | 1009.9 |
| 20260904022047 | 13 | 305 | 8.0 | 12.9 | 0.00 | 0.03 | 0.00 | 99 | 1009.5 |
| 20260904021024 | 14 | 314 | 8.0 | 12.9 | 0.00 | 0.03 | 0.00 | 99 | 1009.5 |
| 20260904020019 | 14 | 290 | 8.0 | 12.9 | 0.00 | 0.03 | 0.00 | 99 | 1009.6 |
| 20260904015036 | 14 | 316 | 1.6 | 11.3 | 0.00 | 0.03 | 0.00 | 99 | 1009.8 |
| 20260904014112 | 14 | 280 | 4.8 | 11.3 | 0.00 | 0.03 | 0.00 | 99 | 1009.9 |
| 20260904013132 | 14 | 300 | 4.8 | 9.7 | 0.00 | 0.03 | 0.00 | 99 | 1010.2 |
| 20260904012107 | 14 | 305 | 1.6 | 9.7 | 0.00 | 0.03 | 0.00 | 99 | 1010.2 |
| 20260904011102 | 14 | 310 | 1.6 | 8.0 | 0.00 | 0.03 | 0.00 | 99 | 1010.2 |
| 20260904010058 | 15 | 326 | 3.2 | 9.7 | 0.00 | 0.03 | 0.00 | 99 | 1010.1 |
| 20260904005057 | 15 | 0.0 | 4.8 | 0.00 | 0.03 | 0.00 | 99 | 1010.4 | |
| 20260904004052 | -17 | 0.0 | 0.0 | 0.00 | 0.03 | 0.00 | 1010.3 | ||
| 20260904003050 | -17 | 0.0 | 0.0 | 0.00 | 0.03 | 0.00 | 1010.4 | ||
| 20260904002045 | -17 | 0.0 | 0.0 | 0.00 | 0.03 | 0.00 | 1010.3 | ||
| 20260904001042 | -17 | 0.0 | 0.0 | 0.00 | 0.03 | 0.00 | 1010.3 | ||
| 20260904000038 | -17 | 0.0 | 0.0 | 0.00 | 0.03 | 0.00 | 1010.4 | ||
| 20260903235034 | 14 | 0.0 | 3.2 | 0.00 | 0.03 | 0.00 | 99 | 1010.5 | |
| 20260903234033 | 14 | 0.0 | 0.0 | 0.00 | 0.03 | 0.00 | 99 | 1010.8 | |
| 20260903233030 | 14 | 293 | 0.0 | 8.0 | 0.00 | 0.03 | 0.00 | 99 | 1011.0 |
| 20260903232024 | 13 | 0.0 | 1.6 | 0.00 | 0.03 | 0.00 | 99 | 1011.1 | |
| 20260903231020 | 14 | 0.0 | 3.2 | 0.00 | 0.03 | 0.00 | 99 | 1011.2 | |
| 20260903230017 | 13 | 0.0 | 0.0 | 0.00 | 0.03 | 0.00 | 99 | 1011.2 | |
| 20260903225114 | 13 | 0.0 | 0.0 | 0.00 | 0.03 | 0.00 | 99 | 1011.3 | |
| 20260903224111 | 13 | 298 | 0.0 | 9.7 | 0.00 | 0.03 | 0.00 | 99 | 1011.2 |
| 20260903223107 | 13 | 0.0 | 0.0 | 0.00 | 0.03 | 0.00 | 99 | 1011.2 | |
| 20260903222105 | 13 | 0.0 | 0.0 | 0.00 | 0.03 | 0.00 | 99 | 1011.2 | |
| 20260903221100 | 13 | 0.0 | 0.0 | 0.00 | 0.03 | 0.00 | 99 | 1011.3 | |
| 20260903220056 | 13 | 0.0 | 0.0 | 0.00 | 0.03 | 0.00 | 99 | 1011.5 | |
| 20260903215053 | 13 | 0.0 | 0.0 | 0.00 | 0.03 | 0.00 | 99 | 1011.5 | |
| 20260903214113 | 13 | 0.0 | 0.0 | 0.00 | 0.03 | 0.00 | 99 | 1011.6 | |
| 20260903213047 | 13 | 0.0 | 0.0 | 0.00 | 0.03 | 0.00 | 99 | 1011.5 | |
| 20260903212043 | 13 | 315 | 0.0 | 4.8 | 0.00 | 0.03 | 0.00 | 99 | 1011.4 |
| 20260903211039 | 13 | 0.0 | 4.8 | 0.00 | 0.03 | 0.00 | 99 | 1011.2 | |
| 20260903210037 | 13 | 0.0 | 0.0 | 0.00 | 0.03 | 0.00 | 99 | 1011.1 | |
| 20260903205052 | 13 | 0.0 | 0.0 | 0.00 | 0.03 | 0.00 | 99 | 1011.2 |